Regional Weather Roundup
Issued by NWS

Home | Current Version | Previous Version | Graphics & Text | Print | Product List | Glossary On
Versions: 1 2 3 4 5 6 7 8 9 10 11 12 13 14 15 16 17 18 19 20 21 22 23 24 25 26 27 28 29 30 31 32 33 34 35 36 37 38 39 40 41 42 43 44 45 46 47 48 49 50
000
ASUS43 KFSD 231102
RWRSD

WEATHER ROUNDUP FOR SOUTH DAKOTA
NATIONAL WEATHER SERVICE SIOUX FALLS SD
600 AM CDT SAT AUG 23 2014

NOTE: "FAIR" INDICATES FEW OR NO CLOUDS BELOW 12,000 FEET WITH NO
SIGNIFICANT WEATHER AND/OR OBSTRUCTIONS TO VISIBILITY.


SDZ001>005-009-010-012>017-231200-
NORTHWEST AND NORTH CENTRAL SOUTH DAKOTA

CITY           SKY/WX    TMP DP  RH WIND       PRES   REMARKS
BUFFALO          N/A     64  63  96 E17       29.87F
FAITH            N/A     63  62  97 NE14      29.93S
MOBRIDGE       LGT RAIN  63  63 100 NE18G26   29.92F
$$

SDZ012>016-024>037-041>051-057-063-072>074-231200-
SOUTHWEST AND SOUTH CENTRAL SOUTH DAKOTA

CITY           SKY/WX    TMP DP  RH WIND       PRES   REMARKS
RAPID CTY ARPT LGT RAIN  63  61  93 S8        29.92F
PIERRE         LGT RAIN  68  68 100 E14       29.86F
ELLSWORTH AFB  DRIZZLE   64  63  97 SW6       29.92F
PHILIP         CLOUDY    67  65  93 NW3       29.87F
PINE RIDGE     LGT RAIN  62  61  96 NW3       29.91F
WINNER         CLOUDY    68  66  93 NE7       29.84F
$$

SDZ004>011-016>023-039-040-231200-
NORTHEAST SOUTH DAKOTA

CITY           SKY/WX    TMP DP  RH WIND       PRES   REMARKS
ABERDEEN       LGT RAIN  64  64 100 NE15      29.98F
WATERTOWN      FOG       67  66  97 E6        29.99S VSB 1
SISSETON         N/A     66  66 100 NE5       29.99S
$$

SDZ017-020-022-023-036>040-048>070-231200-
SOUTHEAST SOUTH DAKOTA

CITY           SKY/WX    TMP DP  RH WIND       PRES   REMARKS
SIOUX FALLS    LGT RAIN  70  67  90 NE18G24   29.89F
HURON          RAIN      70  69  97 E12G18    29.89F FOG
CHAMBERLAIN    CLOUDY    67  67  98 E13G20    29.84F
MITCHELL       LGT RAIN  70  69  97 E14       29.85F
YANKTON        CLOUDY    68  66  94 E6        29.87R
$$

ABBREVIATIONS USED IN REMARKS
   TC - TEMPERATURE IN CELSIUS
  WCI - WIND CHILL INDEX
   HX - HEAT INDEX
  VSB - VISIBILITY



USA.gov is the U.S. government's official web portal to all federal, state and local government web resources and services.